Regional Weather Roundup
Issued by NWS

Home | Current Version | Previous Version | Graphics & Text | Print | Product List | Glossary On
Versions: 1 2 3 4 5 6 7 8 9 10 11 12 13 14 15 16 17 18 19 20 21 22 23 24 25 26 27 28 29 30 31 32 33 34 35 36 37 38 39 40 41 42 43 44 45 46 47 48 49 50
000
ASUS43 KFSD 220102
RWRSD

WEATHER ROUNDUP FOR SOUTH DAKOTA
NATIONAL WEATHER SERVICE SIOUX FALLS SD
800 PM CDT THU SEP 21 2017

NOTE: "FAIR" INDICATES FEW OR NO CLOUDS BELOW 12,000 FEET WITH NO
SIGNIFICANT WEATHER AND/OR OBSTRUCTIONS TO VISIBILITY.


SDZ001>005-009-010-012>017-220200-
NORTHWEST AND NORTH CENTRAL SOUTH DAKOTA

CITY           SKY/WX    TMP DP  RH WIND       PRES   REMARKS
BUFFALO          N/A     62  40  44 N17       29.72R
FAITH            N/A     67  41  38 N17       29.72R
MOBRIDGE       CLOUDY    77  60  55 N12       29.64R
$$

SDZ012>016-024>037-041>051-057-063-072>074-220200-
SOUTHWEST AND SOUTH CENTRAL SOUTH DAKOTA

CITY           SKY/WX    TMP DP  RH WIND       PRES   REMARKS
RAPID CTY ARPT NOT AVBL
PIERRE         CLEAR     76  54  46 SE8       29.61R
CUSTER         CLEAR     59  36  42 NE14      29.80R
ELLSWORTH AFB  CLEAR     69  37  30 N16       29.72R
PHILIP         CLEAR     76  41  28 N12       29.63R
PINE RIDGE     CLEAR     76  46  34 NE9       29.64R
SPEARFISH      FAIR      61  41  48 NE3       29.79R
WINNER         FAIR      76  61  59 E8        29.63R
$$

SDZ004>011-016>023-039-040-220200-
NORTHEAST SOUTH DAKOTA

CITY           SKY/WX    TMP DP  RH WIND       PRES   REMARKS
ABERDEEN       CLEAR     74  66  76 SE6       29.66R
WATERTOWN      CLEAR     75  68  78 SE8       29.70R
BROOKINGS      MOCLDY    78  69  73 SE6       29.72R
SISSETON         N/A     76  70  82 S7        29.68R
$$

SDZ017-020-022-023-036>040-048>070-220200-
SOUTHEAST SOUTH DAKOTA

CITY           SKY/WX    TMP DP  RH WIND       PRES   REMARKS
SIOUX FALLS    CLEAR     83  72  69 SE12      29.70R
HURON          CLEAR     78  67  68 SE7       29.65R
CHAMBERLAIN    CLEAR     81  62  52 NE5       29.63S
MITCHELL       CLEAR     81  67  62 SE6       29.64R
YANKTON        CLEAR     81  72  74 E7        29.67R
$$

ABBREVIATIONS USED IN REMARKS
   TC - TEMPERATURE IN CELSIUS
  WCI - WIND CHILL INDEX
   HX - HEAT INDEX
  VSB - VISIBILITY





USA.gov is the U.S. government's official web portal to all federal, state and local government web resources and services.